Date,TemperatureHighF,TemperatureAvgF,TemperatureLowF,DewpointHighF,DewpointAvgF,DewpointLowF,HumidityHigh,HumidityAvg,HumidityLow,PressureMaxIn,PressureMinIn,WindSpeedMaxMPH,WindSpeedAvgMPH,GustSpeedMaxMPH,PrecipitationSumIn
2013-1-1,59,48,37,27,23,21,66,40,24,30.26,30.14,10,3,12,0.00
2013-1-2,61,49,41,22,19,16,41,31,18,30.17,30.03,12,3,16,0.00
2013-1-3,63,52,40,20,17,13,43,26,14,30.19,30.04,13,4,16,0.00
2013-1-4,63,50,40,25,18,11,51,29,19,30.30,30.19,7,2,11,0.00
2013-1-5,64,50,38,24,20,14,55,32,18,30.33,30.18,8,2,10,0.02
2013-1-6,66,52,39,36,27,18,61,41,18,30.18,29.97,11,2,14,0.00
2013-1-7,64,52,42,40,32,25,76,49,24,30.01,29.90,12,2,18,0.00
2013-1-8,73,56,42,32,24,19,48,32,15,30.07,29.92,12,2,15,0.00
2013-1-9,73,58,46,33,28,25,55,35,17,30.15,29.95,10,2,12,0.00
2013-1-10,66,55,48,48,32,24,56,43,28,29.97,29.81,20,5,33,0.00
2013-1-11,58,46,36,32,22,16,60,41,21,30.14,29.99,7,2,13,0.00
2013-1-12,56,44,35,26,20,13,65,41,19,30.14,30.01,11,2,14,0.00
2013-1-13,55,43,32,17,11,7,55,29,15,30.18,30.05,7,2,12,0.00
2013-1-14,49,42,36,15,5,1,31,22,14,30.34,30.12,18,6,24,0.00
2013-1-15,53,43,34,15,8,0,38,24,12,30.50,30.33,13,4,18,0.00
2013-1-16,62,49,35,26,20,14,46,33,21,30.40,30.22,10,3,14,0.00
2013-1-17,70,56,42,28,23,21,46,30,16,30.27,30.12,12,4,18,0.00
2013-1-18,72,59,47,26,22,19,38,24,16,30.20,30.09,10,3,13,0.00
2013-1-19,73,59,49,28,23,19,37,25,15,30.22,30.10,10,3,13,0.00
2013-1-20,74,59,47,25,20,17,39,23,13,30.15,30.01,10,3,14,0.00
2013-1-21,75,60,47,20,17,12,33,19,9,30.11,30.01,12,3,16,0.00
2013-1-22,78,61,48,28,18,10,30,20,10,30.13,30.03,10,3,15,0.00
2013-1-23,81,66,54,32,25,18,31,22,13,30.11,30.00,11,3,13,0.00
2013-1-24,73,66,59,49,44,31,66,46,27,30.18,30.07,8,2,11,0.00
2013-1-25,69,63,58,57,52,47,95,69,51,30.14,29.96,10,3,12,0.31
2013-1-26,66,60,58,59,57,56,97,91,76,29.96,29.88,9,2,10,0.10
2013-1-27,73,62,54,60,55,40,97,80,57,29.98,29.87,11,3,13,0.09
2013-1-28,61,52,44,41,36,30,82,57,33,30.10,29.96,13,3,19,0.00
2013-1-29,65,51,36,40,36,32,89,61,34,30.21,30.08,8,1,10,0.00
2013-1-30,67,52,39,43,39,32,90,65,27,30.35,30.20,9,1,9,0.00
2013-1-31,72,58,44,42,39,36,76,53,27,30.24,30.09,10,2,12,0.00
2013-2-1,79,56,45,45,37,24,79,53,17,30.21,27.43,6,1,8,0.01
2013-2-2,77,57,42,36,27,16,56,36,10,30.25,30.11,6,2,9,0.00
2013-2-3,73,60,52,39,32,24,56,36,23,30.15,29.96,5,2,9,0.00
2013-2-4,71,57,46,39,37,35,68,51,30,30.05,29.94,7,2,10,0.00
2013-2-5,74,58,44,42,39,36,75,53,27,30.04,29.91,9,2,14,0.00
2013-2-6,70,57,46,41,38,34,72,51,27,30.05,29.92,9,2,18,0.00
2013-2-7,72,56,41,39,32,26,76,46,18,30.11,29.96,6,2,10,0.00
2013-2-8,69,56,46,31,24,14,54,32,13,29.96,29.78,14,4,19,0.00
2013-2-9,52,44,35,37,28,22,93,57,33,30.02,29.80,12,3,18,0.09
2013-2-10,56,43,30,28,24,18,82,53,23,30.02,29.91,5,2,12,0.00
2013-2-11,51,39,31,35,25,22,87,59,39,30.02,29.94,12,3,18,0.04
2013-3-1,53,52,50,25,25,24,38,35,33,30.26,30.25,2,1,5,0.00
2013-3-2,84,70,43,30,23,15,44,20,8,30.30,30.12,13,3,15,0.00
2013-3-3,80,64,44,28,22,13,46,24,8,30.14,29.95,11,3,17,0.00
2013-3-4,72,64,48,34,25,13,51,24,13,30.09,29.90,20,5,23,0.00
2013-3-5,80,62,44,34,28,23,56,31,13,30.11,29.99,15,4,22,0.00
2013-3-6,77,60,53,34,31,25,45,34,17,30.06,29.91,8,2,9,0.00
2013-3-7,79,63,48,31,26,12,51,28,8,29.99,29.90,12,3,18,0.00
2013-3-8,67,57,46,44,36,27,71,47,31,29.97,29.78,18,6,32,0.00
2013-3-9,52,47,42,40,36,33,79,66,52,30.07,29.97,10,2,15,0.02
2013-3-10,64,52,40,39,36,27,85,57,26,30.15,30.06,13,3,20,0.00
2013-3-11,72,56,40,34,29,20,73,42,14,30.17,30.02,8,2,12,0.00
2013-3-12,82,61,42,37,29,23,57,35,12,30.11,30.00,6,2,11,0.00
2013-3-13,89,69,49,36,25,13,53,25,6,30.16,30.03,17,3,17,0.00
2013-3-14,93,73,52,33,19,-1,37,18,3,30.16,30.02,10,3,15,0.00
2013-3-15,95,73,53,28,18,0,30,16,3,30.08,29.93,15,4,21,0.00
2013-3-16,88,72,53,25,16,1,31,14,4,29.97,29.77,13,3,19,0.00
2013-3-17,82,68,53,24,19,15,23,16,9,29.95,29.84,21,4,25,0.00
2013-3-18,82,67,52,32,25,15,40,22,9,30.02,29.92,10,3,18,0.01
2013-3-19,78,67,53,35,28,23,38,25,15,30.07,29.96,12,3,17,0.00
2013-3-20,82,67,53,30,28,25,39,25,13,30.08,29.90,12,3,16,0.00
2013-3-21,79,67,56,34,31,28,35,26,17,29.91,29.76,13,2,19,0.00
2013-3-22,79,69,55,33,29,15,39,24,9,29.83,29.71,15,3,19,0.00
2013-3-23,80,66,50,36,23,6,43,23,7,32.49,29.84,5,1,8,0.01
2013-3-24,75,69,57,29,16,2,22,14,7,32.49,30.67,8,1,8,0.01
2013-3-25,78,62,45,23,18,13,39,21,9,31.25,31.05,6,1,7,0.00
2013-3-26,84,68,55,30,23,11,37,21,7,31.08,30.91,11,2,18,0.00
2013-3-27,82,71,60,36,32,27,36,24,15,31.09,30.97,11,3,18,0.00
2013-3-28,81,71,62,39,36,32,43,29,18,31.20,31.07,13,3,15,0.00
2013-3-29,86,72,55,37,34,30,47,26,15,31.30,31.15,10,2,12,0.00
2013-3-30,88,74,59,39,33,27,41,24,12,31.27,31.11,6,0,9,0.00
2013-3-31,85,68,54,39,28,20,28,23,15,31.16,26.34,0,0,0,0.00
2013-4-1,84,52,45,51,24,14,60,35,26,30.16,27.41,0,0,1,0.00
2013-4-14,-200,0,200,-100,-100,-100,0,0,100,29.98,29.96,0,-999,0,0.00
2013-4-15,-200,0,200,-100,-100,-100,0,0,100,30.02,29.96,0,-999,0,0.00
2013-5-23,-200,0,200,-100,-100,-100,0,0,100,30.57,30.50,0,-999,0,0.00
2013-5-24,-200,0,200,-100,-100,-100,0,0,100,30.64,30.51,0,-999,0,0.00
2013-5-25,-200,0,200,-100,-100,-100,0,0,100,30.61,30.49,0,-999,0,0.00
2013-5-26,-200,0,200,-100,-100,-100,0,0,100,30.56,30.15,0,-999,0,0.00
2013-6-5,-200,0,200,-100,-100,-100,0,0,100,30.35,30.25,0,-999,0,0.00
2013-6-6,-200,0,200,-100,-100,-100,0,0,100,30.33,30.17,0,-999,0,0.00
2013-6-7,-200,0,200,-100,-100,-100,0,0,100,30.30,30.16,0,-999,0,0.00
2013-6-8,-200,0,200,-100,-100,-100,0,0,100,30.38,30.27,0,-999,0,0.00
2013-6-27,-200,0,200,-100,-100,-100,0,0,100,30.38,30.30,0,-999,0,0.00
2013-6-28,-200,0,200,-100,-100,-100,0,0,100,30.47,30.19,0,-999,0,0.00
2013-6-29,-200,0,200,-100,-100,-100,0,0,100,30.30,0.00,0,-999,0,0.00
2013-6-30,77,7,74,51,-87,-100,41,4,40,30.33,29.40,0,-912,0,0.00
2013-8-7,80,48,72,38,-10,-100,28,17,22,31.53,31.46,0,-346,2,0.02
2013-8-8,88,76,69,63,49,36,64,40,26,32.48,31.31,6,0,6,0.01
2013-8-9,83,70,60,63,58,53,85,68,45,32.41,32.41,3,0,7,0.00
2013-8-10,84,70,60,66,61,57,90,73,49,32.41,32.41,4,0,6,0.00
2013-8-11,77,64,59,59,57,50,89,78,48,32.44,32.41,3,0,5,0.03
2013-8-12,66,59,54,58,55,51,93,85,73,32.44,32.44,10,2,11,0.00
2013-8-13,67,58,46,57,52,45,95,81,65,32.44,32.44,12,2,17,0.00
2013-8-14,77,61,51,60,55,49,95,83,50,32.44,32.44,5,0,10,0.01
2013-8-15,73,63,59,67,61,57,98,92,78,32.44,32.44,3,0,5,0.19
2013-8-16,71,62,54,61,58,53,97,88,70,32.44,32.44,2,0,5,0.00
2013-8-17,85,67,52,64,56,51,98,73,31,32.44,29.51,7,1,13,0.04
2013-8-18,89,67,43,54,48,40,90,56,24,29.75,29.64,10,1,13,0.00
2013-8-19,98,69,43,62,48,40,88,54,16,30.63,28.12,4,0,5,0.00
2013-8-20,76,69,64,58,51,45,66,54,39,30.44,30.23,5,1,8,0.02
2013-9-13,81,74,63,62,59,57,82,61,48,29.72,29.66,1,0,8,0.00
2013-9-14,88,69,61,63,60,57,92,75,37,29.78,29.70,2,0,6,0.18
2013-9-15,89,72,54,60,56,50,87,60,34,29.81,29.65,3,0,7,0.00
2013-9-16,70,65,60,57,56,55,84,72,63,29.75,29.67,5,1,11,0.00
2013-10-3,60,50,37,38,30,-100,86,54,32,30.53,30.29,8,-26,16,0.00
2013-10-4,61,43,29,37,30,27,93,67,30,30.78,30.54,2,0,7,0.00
2013-10-5,65,45,28,35,30,24,89,60,27,30.86,30.70,4,0,4,0.00
2013-10-6,66,40,32,42,31,27,88,71,42,30.74,29.73,3,0,4,0.01
2013-11-20,71,67,68,47,39,-100,47,39,32,27.45,27.33,0,-27,0,0.00
2013-11-21,71,67,63,39,34,28,38,30,23,27.74,26.14,0,0,1,0.01
2013-11-22,69,61,50,49,38,28,92,48,24,32.32,26.24,6,1,9,0.23
2013-11-23,58,53,49,50,48,47,94,85,73,32.38,30.06,10,3,11,0.23
2013-11-24,64,57,52,48,46,43,86,69,48,30.14,30.06,7,2,9,0.00
2013-11-25,69,56,45,46,42,37,90,63,33,30.20,30.11,9,2,15,0.00
2013-11-26,70,56,46,47,42,38,81,62,33,30.26,30.11,6,1,7,0.00
2013-11-27,70,58,49,46,42,38,85,60,33,30.14,29.93,5,1,9,0.00
2013-11-28,72,57,46,44,40,36,81,55,29,30.05,29.94,4,1,10,0.00
2013-11-29,77,59,47,51,44,39,79,58,36,30.72,29.31,7,1,8,0.01
2013-11-30,73,60,48,48,44,42,88,58,33,30.18,30.06,8,2,11,0.00
2013-12-1,74,60,49,46,43,41,85,57,31,30.22,30.11,9,2,13,0.00
2013-12-2,75,61,47,43,40,38,79,49,27,30.13,29.84,6,2,9,0.00
2013-12-3,78,64,48,58,47,38,81,57,30,29.84,29.62,14,4,23,0.00
2013-12-4,63,58,50,48,37,23,79,49,30,29.96,29.68,13,4,21,0.00
2013-12-5,59,50,43,29,24,20,47,36,23,30.10,29.95,13,3,13,0.00
2013-12-6,59,50,39,33,26,20,63,43,25,30.18,30.09,10,2,11,0.00
2013-12-7,63,52,40,39,33,30,75,51,31,30.09,29.94,11,2,19,0.00
2013-12-8,58,51,43,39,26,16,67,40,24,30.18,30.01,9,3,13,0.00
2013-12-9,53,46,36,18,12,8,41,27,17,30.39,30.18,15,4,25,0.00
2013-12-10,57,47,41,18,12,9,31,25,16,30.36,30.14,11,4,17,0.00
2013-12-11,63,52,44,24,18,14,38,27,19,30.23,30.14,9,3,15,0.00
2013-12-12,67,56,47,30,25,19,52,30,20,30.18,30.09,11,3,12,0.00
2013-12-13,69,54,42,40,34,31,74,50,27,30.18,30.08,4,0,6,0.00
2013-12-14,68,56,44,33,28,25,59,35,21,30.35,30.19,14,3,17,0.00
2013-12-15,71,58,47,32,28,26,47,33,19,30.32,30.17,13,3,15,0.00
2013-12-16,76,62,48,37,30,26,50,32,19,30.21,30.09,10,3,12,0.00
2013-12-17,78,64,53,37,33,29,45,31,20,30.18,30.02,8,4,11,0.00
2013-12-18,76,64,56,51,35,30,77,36,22,30.02,29.76,10,4,14,0.00
2013-12-19,70,58,47,49,44,40,86,62,40,29.76,29.64,9,2,15,0.07
2013-12-20,66,55,47,49,43,34,93,67,35,29.85,29.65,11,2,13,0.08
2013-12-21,66,55,46,49,44,40,88,69,41,30.03,29.83,8,2,10,0.00
2013-12-22,65,52,41,50,45,39,93,79,50,30.27,30.03,4,0,5,0.00
2013-12-23,70,54,44,47,40,31,93,63,26,30.38,30.23,8,2,11,0.00
2013-12-24,72,58,44,40,36,32,70,47,27,30.23,30.11,8,2,13,0.00
2013-12-25,72,60,47,39,31,23,67,36,19,30.28,30.14,13,3,17,0.00
2013-12-26,74,59,45,27,22,18,48,25,14,30.23,30.10,8,3,13,0.00
2013-12-27,74,57,41,30,25,18,59,32,13,30.20,30.06,9,2,12,0.00
2013-12-28,67,56,44,34,30,25,67,39,23,30.08,29.91,9,2,11,0.00
2013-12-29,69,57,42,34,26,20,70,34,16,30.15,29.96,14,3,22,0.00
2013-12-30,70,57,45,29,22,17,50,27,15,30.27,30.15,7,2,12,0.00
2013-12-31,69,53,40,33,28,23,62,40,19,30.21,30.07,9,3,11,0.00
2014-1-1,72,58,46,29,25,21,46,29,16,30.16,30.05,7,2,9,0.00
2014-1-2,76,59,45,36,31,27,59,37,19,30.14,30.00,9,3,12,0.00